Time,TemperatureF,DewpointF,PressureIn,WindDirection,WindDirectionDegrees,WindSpeedMPH,WindSpeedGustMPH,Humidity,HourlyPrecipIn,Conditions,Clouds,dailyrainin,SoftwareType,DateUTC
2013-07-05 00:01:00,70.0,69.7,28.87,South,180,0.0,0.0,99,0.01,RA,SKC,0.00,WeatherDisplay:10.37,2013-07-05 04:01:00,
2013-07-05 00:02:00,70.0,69.7,28.87,South,180,0.0,0.0,99,0.01,RA,SKC,0.00,WeatherDisplay:10.37,2013-07-05 04:02:00,
2013-07-05 00:05:00,70.0,69.7,28.87,South,180,0.0,0.0,99,0.01,RA,SKC,0.00,WeatherDisplay:10.37,2013-07-05 04:05:00,
2013-07-05 00:10:00,70.0,69.7,28.88,SE,135,0.0,0.0,99,0.01,CLR,SKC,0.00,WeatherDisplay:10.37,2013-07-05 04:10:00,
2013-07-05 00:15:00,69.8,69.5,28.87,South,180,0.0,0.0,99,0.00,CLR,SKC,0.00,WeatherDisplay:10.37,2013-07-05 04:15:00,
2013-07-05 00:20:00,69.8,69.5,28.88,South,180,0.0,0.0,99,0.00,CLR,SKC,0.00,WeatherDisplay:10.37,2013-07-05 04:20:00,
2013-07-05 00:25:00,69.8,69.5,28.87,South,180,0.0,0.0,99,0.00,CLR,SKC,0.00,WeatherDisplay:10.37,2013-07-05 04:25:00,
2013-07-05 00:30:00,69.6,69.3,28.88,South,180,0.0,0.0,99,0.00,CLR,SKC,0.00,WeatherDisplay:10.37,2013-07-05 04:30:00,
2013-07-05 00:35:00,69.6,69.3,28.88,South,180,0.0,0.0,99,0.00,CLR,SKC,0.00,WeatherDisplay:10.37,2013-07-05 04:35:00,
2013-07-05 00:40:00,69.4,69.1,28.87,South,180,0.0,0.0,99,0.00,CLR,SKC,0.00,WeatherDisplay:10.37,2013-07-05 04:40:00,
2013-07-05 00:45:00,69.4,69.1,28.88,South,180,0.0,0.0,99,0.00,CLR,SKC,0.00,WeatherDisplay:10.37,2013-07-05 04:45:00,
2013-07-05 00:50:00,69.4,69.1,28.88,South,180,0.0,0.0,99,0.00,CLR,SKC,0.00,WeatherDisplay:10.37,2013-07-05 04:50:00,
2013-07-05 00:55:00,69.3,69.0,28.87,South,180,0.0,0.0,99,0.00,CLR,SKC,0.00,WeatherDisplay:10.37,2013-07-05 04:55:00,
2013-07-05 01:00:00,69.3,69.0,28.88,South,180,0.0,0.0,99,0.00,CLR,SKC,0.00,WeatherDisplay:10.37,2013-07-05 05:00:00,
2013-07-05 01:05:00,69.3,69.0,28.88,South,180,0.0,0.0,99,0.00,CLR,SKC,0.00,WeatherDisplay:10.37,2013-07-05 05:05:00,
2013-07-05 01:10:00,69.4,69.1,28.88,SE,135,0.0,0.0,99,0.00,CLR,SKC,0.00,WeatherDisplay:10.37,2013-07-05 05:10:00,
2013-07-05 01:15:00,69.4,69.1,28.87,South,180,0.0,0.0,99,0.00,CLR,SKC,0.00,WeatherDisplay:10.37,2013-07-05 05:15:00,
2013-07-05 01:20:00,69.4,69.1,28.88,SE,135,0.0,0.0,99,0.00,CLR,SKC,0.00,WeatherDisplay:10.37,2013-07-05 05:20:00,
2013-07-05 01:25:00,69.4,69.1,28.88,SE,135,0.0,0.0,99,0.00,CLR,SKC,0.00,WeatherDisplay:10.37,2013-07-05 05:25:00,
2013-07-05 01:30:00,69.4,69.1,28.88,SE,135,0.0,0.0,99,0.00,CLR,SKC,0.00,WeatherDisplay:10.37,2013-07-05 05:30:00,
2013-07-05 01:35:00,69.4,69.1,28.88,SE,135,0.0,0.0,99,0.00,CLR,SKC,0.00,WeatherDisplay:10.37,2013-07-05 05:35:00,
2013-07-05 01:40:00,69.4,69.1,28.88,SE,135,0.0,0.0,99,0.00,CLR,SKC,0.00,WeatherDisplay:10.37,2013-07-05 05:40:00,
2013-07-05 01:45:00,69.3,69.0,28.88,SE,135,0.0,0.0,99,0.00,CLR,SKC,0.00,WeatherDisplay:10.37,2013-07-05 05:45:00,
2013-07-05 01:50:00,69.3,69.0,28.88,SE,135,0.0,0.0,99,0.00,CLR,SKC,0.00,WeatherDisplay:10.37,2013-07-05 05:50:00,
2013-07-05 01:55:00,69.4,69.1,28.87,South,180,0.0,0.0,99,0.00,CLR,SKC,0.00,WeatherDisplay:10.37,2013-07-05 05:55:00,
2013-07-05 02:00:00,69.4,69.1,28.87,South,180,0.0,0.0,99,0.00,CLR,SKC,0.00,WeatherDisplay:10.37,2013-07-05 06:00:00,
2013-07-05 02:05:00,69.4,69.1,28.87,South,180,0.0,0.0,99,0.00,CLR,SKC,0.00,WeatherDisplay:10.37,2013-07-05 06:05:00,
2013-07-05 02:10:00,69.4,69.1,28.87,South,180,0.0,0.0,99,0.00,CLR,SKC,0.00,WeatherDisplay:10.37,2013-07-05 06:10:00,
2013-07-05 02:15:00,69.6,69.3,28.87,South,180,0.0,0.0,99,0.00,CLR,SKC,0.00,WeatherDisplay:10.37,2013-07-05 06:15:00,
2013-07-05 02:20:00,69.6,69.3,28.87,South,180,0.0,0.0,99,0.00,CLR,SKC,0.00,WeatherDisplay:10.37,2013-07-05 06:20:00,
2013-07-05 02:25:00,69.4,69.1,28.87,South,180,0.0,0.0,99,0.00,CLR,SKC,0.00,WeatherDisplay:10.37,2013-07-05 06:25:00,
2013-07-05 02:30:00,69.4,69.1,28.87,South,180,0.0,0.0,99,0.00,CLR,SKC,0.00,WeatherDisplay:10.37,2013-07-05 06:30:00,
2013-07-05 02:35:00,69.4,69.1,28.87,South,180,0.0,0.0,99,0.00,CLR,SKC,0.00,WeatherDisplay:10.37,2013-07-05 06:35:00,
2013-07-05 02:40:00,69.3,69.0,28.87,North,3,0.0,0.0,99,0.00,CLR,SKC,0.00,WeatherDisplay:10.37,2013-07-05 06:40:00,
2013-07-05 02:45:00,69.1,68.8,28.87,North,0,0.0,0.0,99,0.00,CLR,SKC,0.00,WeatherDisplay:10.37,2013-07-05 06:45:00,
2013-07-05 02:50:00,69.1,68.8,28.87,North,0,0.0,0.0,99,0.00,CLR,SKC,0.00,WeatherDisplay:10.37,2013-07-05 06:50:00,
2013-07-05 02:55:00,69.3,69.0,28.87,North,0,0.0,0.0,99,0.00,CLR,SKC,0.00,WeatherDisplay:10.37,2013-07-05 06:55:00,
2013-07-05 03:00:00,69.3,69.0,28.87,North,0,0.0,0.0,99,0.00,CLR,SKC,0.00,WeatherDisplay:10.37,2013-07-05 07:00:00,
2013-07-05 03:05:00,69.3,69.0,28.87,North,0,0.0,0.0,99,0.00,CLR,SKC,0.00,WeatherDisplay:10.37,2013-07-05 07:05:00,
2013-07-05 03:10:00,69.1,68.8,28.86,SE,135,0.0,0.0,99,0.00,CLR,SKC,0.00,WeatherDisplay:10.37,2013-07-05 07:10:00,
2013-07-05 03:15:00,69.1,69.1,28.86,SE,135,0.0,0.0,100,0.00,CLR,SKC,0.00,WeatherDisplay:10.37,2013-07-05 07:15:00,
2013-07-05 03:20:00,69.1,69.1,28.87,SE,135,0.0,0.0,100,0.00,CLR,SKC,0.00,WeatherDisplay:10.37,2013-07-05 07:20:00,
2013-07-05 03:25:00,69.3,69.3,28.87,SE,135,0.0,0.0,100,0.00,CLR,SKC,0.00,WeatherDisplay:10.37,2013-07-05 07:25:00,
2013-07-05 03:30:00,69.3,69.3,28.86,SE,135,0.0,0.0,100,0.00,CLR,SKC,0.00,WeatherDisplay:10.37,2013-07-05 07:30:00,
2013-07-05 03:35:00,69.3,69.3,28.86,SE,135,0.0,0.0,100,0.00,CLR,SKC,0.00,WeatherDisplay:10.37,2013-07-05 07:35:00,
2013-07-05 03:40:00,69.3,69.3,28.87,SE,135,0.0,0.0,100,0.00,CLR,SKC,0.00,WeatherDisplay:10.37,2013-07-05 07:40:00,
2013-07-05 03:45:00,69.1,67.9,28.87,SE,135,0.0,0.0,96,0.00,CLR,SKC,0.00,WeatherDisplay:10.37,2013-07-05 07:45:00,
2013-07-05 03:50:00,68.9,66.2,28.87,SE,135,0.0,0.0,91,0.00,CLR,SKC,0.00,WeatherDisplay:10.37,2013-07-05 07:50:00,
2013-07-05 03:55:00,69.1,66.3,28.87,SE,135,0.0,0.0,91,0.00,CLR,SKC,0.00,WeatherDisplay:10.37,2013-07-05 07:55:00,
2013-07-05 04:00:00,68.9,64.5,28.87,SE,135,0.0,0.0,86,0.00,CLR,SKC,0.00,WeatherDisplay:10.37,2013-07-05 08:00:00,
2013-07-05 04:05:00,68.9,64.5,28.86,SE,135,0.0,0.0,86,0.00,CLR,SKC,0.00,WeatherDisplay:10.37,2013-07-05 08:05:00,
2013-07-05 04:10:00,68.9,63.9,28.86,SE,135,0.0,0.0,84,0.00,CLR,SKC,0.00,WeatherDisplay:10.37,2013-07-05 08:10:00,
2013-07-05 04:15:00,68.9,64.9,28.86,SE,135,0.0,0.0,87,0.00,CLR,SKC,0.00,WeatherDisplay:10.37,2013-07-05 08:15:00,
2013-07-05 04:20:00,68.7,63.3,28.86,SE,135,0.0,0.0,83,0.00,CLR,SKC,0.00,WeatherDisplay:10.37,2013-07-05 08:20:00,
2013-07-05 04:25:00,68.7,62.7,28.86,SE,135,0.0,0.0,81,0.00,CLR,SKC,0.00,WeatherDisplay:10.37,2013-07-05 08:25:00,
2013-07-05 04:30:00,68.7,62.7,28.86,SE,135,0.0,0.0,81,0.00,CLR,SKC,0.00,WeatherDisplay:10.37,2013-07-05 08:30:00,
2013-07-05 04:35:00,68.7,63.0,28.86,SE,135,0.0,0.0,82,0.00,CLR,SKC,0.00,WeatherDisplay:10.37,2013-07-05 08:35:00,
2013-07-05 04:40:00,68.7,63.0,28.86,SE,135,0.0,0.0,82,0.00,CLR,SKC,0.00,WeatherDisplay:10.37,2013-07-05 08:40:00,
2013-07-05 04:45:00,68.7,63.0,28.86,SE,135,0.0,0.0,82,0.00,CLR,SKC,0.00,WeatherDisplay:10.37,2013-07-05 08:45:00,
2013-07-05 04:50:00,68.7,65.0,28.86,SE,135,0.0,0.0,88,0.00,CLR,SKC,0.00,WeatherDisplay:10.37,2013-07-05 08:50:00,
2013-07-05 04:55:00,68.7,65.7,28.86,SE,135,0.0,0.0,90,0.00,CLR,SKC,0.00,WeatherDisplay:10.37,2013-07-05 08:55:00,
2013-07-05 05:00:00,68.7,66.0,28.86,SE,135,0.0,0.0,91,0.00,CLR,SKC,0.00,WeatherDisplay:10.37,2013-07-05 09:00:00,
2013-07-05 05:06:00,68.7,66.0,28.86,SE,135,0.0,0.0,91,0.00,CLR,SKC,0.00,WeatherDisplay:10.37,2013-07-05 09:06:00,
2013-07-05 05:11:00,68.7,66.0,28.86,SE,135,0.0,0.0,91,0.00,CLR,SKC,0.00,WeatherDisplay:10.37,2013-07-05 09:11:00,
2013-07-05 05:16:00,68.5,63.5,28.85,SE,135,0.0,0.0,84,0.00,CLR,SKC,0.00,WeatherDisplay:10.37,2013-07-05 09:16:00,
2013-07-05 05:21:00,68.5,62.5,28.86,SE,135,0.0,0.0,81,0.00,CLR,SKC,0.00,WeatherDisplay:10.37,2013-07-05 09:21:00,
2013-07-05 05:26:00,68.4,60.1,28.86,SE,135,0.0,0.0,75,0.00,CLR,SKC,0.00,WeatherDisplay:10.37,2013-07-05 09:26:00,
2013-07-05 05:31:00,68.4,58.2,28.86,SE,135,0.0,0.0,70,0.00,CLR,SKC,0.00,WeatherDisplay:10.37,2013-07-05 09:31:00,
2013-07-05 05:36:00,68.4,55.3,28.86,SE,135,0.0,0.0,63,0.00,CLR,SKC,0.00,WeatherDisplay:10.37,2013-07-05 09:36:00,
2013-07-05 05:41:00,68.2,52.4,28.86,SE,135,0.0,0.0,57,0.00,CLR,SKC,0.00,WeatherDisplay:10.37,2013-07-05 09:41:00,
2013-07-05 05:46:00,68.2,49.9,28.86,SE,135,0.0,0.0,52,0.00,CLR,SKC,0.00,WeatherDisplay:10.37,2013-07-05 09:46:00,
2013-07-05 05:51:00,68.2,47.7,28.86,SE,135,0.0,0.0,48,0.00,CLR,SKC,0.00,WeatherDisplay:10.37,2013-07-05 09:51:00,
2013-07-05 05:56:00,68.2,44.8,28.86,South,180,0.0,0.0,43,0.00,CLR,SKC,0.00,WeatherDisplay:10.37,2013-07-05 09:56:00,
2013-07-05 06:01:00,68.2,42.9,28.87,South,180,0.0,0.0,40,0.00,CLR,SKC,0.00,WeatherDisplay:10.37,2013-07-05 10:01:00,
2013-07-05 06:06:00,68.5,43.2,28.87,South,180,0.0,0.0,40,0.00,CLR,SKC,0.00,WeatherDisplay:10.37,2013-07-05 10:06:00,
2013-07-05 06:11:00,69.1,43.1,28.87,SE,135,0.0,0.0,39,0.00,CLR,SKC,0.00,WeatherDisplay:10.37,2013-07-05 10:11:00,
2013-07-05 06:17:00,69.3,40.4,28.87,SE,135,0.0,0.0,35,0.00,CLR,SKC,0.00,WeatherDisplay:10.37,2013-07-05 10:17:00,
2013-07-05 06:22:00,69.3,40.4,28.86,SE,135,0.0,0.0,35,0.00,CLR,SKC,0.00,WeatherDisplay:10.37,2013-07-05 10:22:00,
2013-07-05 06:27:00,69.6,40.7,28.86,SE,135,0.0,0.0,35,0.00,CLR,SKC,0.00,WeatherDisplay:10.37,2013-07-05 10:27:00,
2013-07-05 06:32:00,69.4,40.6,28.87,SE,135,0.0,0.0,35,0.00,CLR,SKC,0.00,WeatherDisplay:10.37,2013-07-05 10:32:00,
2013-07-05 06:37:00,69.4,40.6,28.87,SE,135,0.0,0.0,35,0.00,CLR,SKC,0.00,WeatherDisplay:10.37,2013-07-05 10:37:00,
2013-07-05 06:42:00,69.8,40.9,28.87,South,180,0.0,0.0,35,0.00,CLR,SKC,0.00,WeatherDisplay:10.37,2013-07-05 10:42:00,
2013-07-05 06:47:00,71.2,42.2,28.87,SE,135,0.0,0.0,35,0.00,CLR,SKC,0.00,WeatherDisplay:10.37,2013-07-05 10:47:00,
2013-07-05 06:52:00,72.3,43.1,28.87,SE,135,0.0,0.0,35,0.00,CLR,SKC,0.00,WeatherDisplay:10.37,2013-07-05 10:52:00,
2013-07-05 06:57:00,72.0,42.8,28.87,South,180,0.0,0.0,35,0.00,CLR,SKC,0.00,WeatherDisplay:10.37,2013-07-05 10:57:00,
2013-07-05 07:02:00,71.8,42.6,28.87,South,180,0.0,0.0,35,0.00,CLR,SKC,0.00,WeatherDisplay:10.37,2013-07-05 11:02:00,
2013-07-05 07:07:00,71.8,42.6,28.86,South,180,0.0,0.0,35,0.00,CLR,SKC,0.00,WeatherDisplay:10.37,2013-07-05 11:07:00,
2013-07-05 07:12:00,71.2,42.2,28.86,SE,135,0.0,0.0,35,0.00,CLR,SKC,0.00,WeatherDisplay:10.37,2013-07-05 11:12:00,
2013-07-05 07:17:00,71.1,42.0,28.87,SE,135,0.0,0.0,35,0.00,CLR,SKC,0.00,WeatherDisplay:10.37,2013-07-05 11:17:00,
2013-07-05 07:22:00,70.9,41.9,28.87,SE,135,0.0,0.0,35,0.00,CLR,SKC,0.00,WeatherDisplay:10.37,2013-07-05 11:22:00,
2013-07-05 07:27:00,70.9,41.9,28.87,SE,135,0.0,0.0,35,0.00,CLR,SKC,0.00,WeatherDisplay:10.37,2013-07-05 11:27:00,
2013-07-05 07:32:00,70.7,41.7,28.87,East,90,0.0,0.0,35,0.00,CLR,SKC,0.00,WeatherDisplay:10.37,2013-07-05 11:32:00,
2013-07-05 07:38:00,70.9,41.9,28.87,SE,135,0.0,0.0,35,0.00,CLR,SKC,0.00,WeatherDisplay:10.37,2013-07-05 11:38:00,
2013-07-05 07:43:00,71.2,42.2,28.87,SE,135,0.0,0.0,35,0.00,CLR,SKC,0.00,WeatherDisplay:10.37,2013-07-05 11:43:00,
2013-07-05 07:48:00,71.4,42.3,28.87,South,180,0.0,0.0,35,0.00,CLR,SKC,0.00,WeatherDisplay:10.37,2013-07-05 11:48:00,
2013-07-05 07:53:00,71.8,42.6,28.87,SE,135,0.0,0.0,35,0.00,CLR,SKC,0.00,WeatherDisplay:10.37,2013-07-05 11:53:00,
2013-07-05 07:58:00,71.8,42.6,28.87,East,90,0.0,0.0,35,0.00,CLR,SKC,0.00,WeatherDisplay:10.37,2013-07-05 11:58:00,
2013-07-05 08:03:00,72.0,42.8,28.87,SE,135,0.0,0.0,35,0.00,CLR,SKC,0.00,WeatherDisplay:10.37,2013-07-05 12:03:00,
2013-07-05 08:08:00,72.3,43.1,28.87,SE,135,0.0,0.0,35,0.00,CLR,SKC,0.00,WeatherDisplay:10.37,2013-07-05 12:08:00,
2013-07-05 08:13:00,72.7,43.4,28.87,SE,135,0.0,0.0,35,0.00,CLR,SKC,0.00,WeatherDisplay:10.37,2013-07-05 12:13:00,
2013-07-05 08:18:00,73.0,43.8,28.88,SE,135,0.0,0.0,35,0.00,CLR,SKC,0.00,WeatherDisplay:10.37,2013-07-05 12:18:00,
2013-07-05 08:24:00,73.6,44.2,28.87,SE,135,0.0,0.0,35,0.00,CLR,SKC,0.00,WeatherDisplay:10.37,2013-07-05 12:24:00,
2013-07-05 08:29:00,74.5,45.0,28.88,SE,135,0.0,0.0,35,0.00,CLR,SKC,0.00,WeatherDisplay:10.37,2013-07-05 12:29:00,
2013-07-05 08:34:00,75.4,45.8,28.87,South,180,0.0,0.7,35,0.00,CLR,SKC,0.00,WeatherDisplay:10.37,2013-07-05 12:34:00,
2013-07-05 08:39:00,75.9,46.3,28.88,SE,135,1.2,1.2,35,0.00,CLR,SKC,0.00,WeatherDisplay:10.37,2013-07-05 12:39:00,
2013-07-05 08:44:00,77.0,47.2,28.88,South,180,3.5,3.5,35,0.00,CLR,SKC,0.00,WeatherDisplay:10.37,2013-07-05 12:44:00,
2013-07-05 08:49:00,77.7,47.9,28.88,South,180,1.2,0.0,35,0.00,CLR,SKC,0.00,WeatherDisplay:10.37,2013-07-05 12:49:00,
2013-07-05 08:54:00,79.0,49.0,28.88,SSE,158,3.5,3.5,35,0.00,CLR,SKC,0.00,WeatherDisplay:10.37,2013-07-05 12:54:00,
2013-07-05 08:59:00,78.4,48.5,28.88,South,180,1.2,0.0,35,0.00,CLR,SKC,0.00,WeatherDisplay:10.37,2013-07-05 12:59:00,
2013-07-05 09:04:00,78.4,48.5,28.88,South,180,5.8,5.8,35,0.00,CLR,SKC,0.00,WeatherDisplay:10.37,2013-07-05 13:04:00,
2013-07-05 09:10:00,77.5,47.7,28.89,NW,315,3.5,3.5,35,0.00,CLR,SKC,0.00,WeatherDisplay:10.37,2013-07-05 13:10:00,
2013-07-05 09:15:00,77.2,47.4,28.88,South,180,3.5,0.0,35,0.00,CLR,SKC,0.00,WeatherDisplay:10.37,2013-07-05 13:15:00,
2013-07-05 09:20:00,77.5,47.7,28.89,South,180,3.5,3.5,35,0.00,CLR,SKC,0.00,WeatherDisplay:10.37,2013-07-05 13:20:00,
2013-07-05 09:25:00,78.3,48.4,28.88,South,180,2.3,2.3,35,0.00,CLR,SKC,0.00,WeatherDisplay:10.37,2013-07-05 13:25:00,
2013-07-05 09:30:00,79.9,49.8,28.88,South,180,1.2,0.0,35,0.00,CLR,SKC,0.00,WeatherDisplay:10.37,2013-07-05 13:30:00,
2013-07-05 09:35:00,80.8,50.6,28.88,East,90,2.3,2.3,35,0.00,CLR,SKC,0.00,WeatherDisplay:10.37,2013-07-05 13:35:00,
2013-07-05 09:40:00,81.3,51.0,28.88,East,90,3.5,0.0,35,0.00,CLR,SKC,0.00,WeatherDisplay:10.37,2013-07-05 13:40:00,
2013-07-05 09:46:00,83.1,52.6,28.88,East,90,4.6,4.6,35,0.00,CLR,SKC,0.00,WeatherDisplay:10.37,2013-07-05 13:46:00,
2013-07-05 09:51:00,82.8,52.3,28.89,SE,135,5.8,0.0,35,0.00,CLR,SKC,0.00,WeatherDisplay:10.37,2013-07-05 13:51:00,
2013-07-05 09:56:00,81.7,51.4,28.89,South,180,3.5,3.8,35,0.00,CLR,SKC,0.00,WeatherDisplay:10.37,2013-07-05 13:56:00,
2013-07-05 10:01:00,81.0,50.7,28.89,WNW,292,2.3,0.0,35,0.00,CLR,SKC,0.00,WeatherDisplay:10.37,2013-07-05 14:01:00,
2013-07-05 10:06:00,81.0,50.7,28.89,WNW,292,1.6,0.0,35,0.00,CLR,SKC,0.00,WeatherDisplay:10.37,2013-07-05 14:06:00,
2013-07-05 10:11:00,83.3,52.8,28.88,NW,315,3.8,3.8,35,0.00,CLR,SKC,0.00,WeatherDisplay:10.37,2013-07-05 14:11:00,
2013-07-05 10:16:00,83.8,53.3,28.89,North,0,3.5,3.5,35,0.00,CLR,SKC,0.00,WeatherDisplay:10.37,2013-07-05 14:16:00,
2013-07-05 10:21:00,84.4,53.7,28.88,South,180,3.5,3.5,35,0.00,CLR,SKC,0.00,WeatherDisplay:10.37,2013-07-05 14:21:00,
2013-07-05 10:27:00,84.2,53.6,28.88,South,180,3.5,3.5,35,0.00,CLR,SKC,0.00,WeatherDisplay:10.37,2013-07-05 14:27:00,
2013-07-05 10:32:00,84.2,53.6,28.89,North,8,3.5,0.0,35,0.00,CLR,SKC,0.00,WeatherDisplay:10.37,2013-07-05 14:32:00,
2013-07-05 10:37:00,84.2,53.6,28.88,NW,315,1.2,0.0,35,0.00,CLR,SKC,0.00,WeatherDisplay:10.37,2013-07-05 14:37:00,
2013-07-05 10:42:00,83.7,53.1,28.88,South,180,2.3,2.3,35,0.00,CLR,SKC,0.00,WeatherDisplay:10.37,2013-07-05 14:42:00,
2013-07-05 10:48:00,84.2,53.6,28.88,East,90,4.6,4.6,35,0.00,CLR,SKC,0.00,WeatherDisplay:10.37,2013-07-05 14:48:00,
2013-07-05 10:53:00,83.7,53.1,28.88,SE,135,3.5,3.5,35,0.00,CLR,SKC,0.00,WeatherDisplay:10.37,2013-07-05 14:53:00,
2013-07-05 10:58:00,84.0,53.4,28.88,SSE,158,8.1,8.1,35,0.00,CLR,SKC,0.00,WeatherDisplay:10.37,2013-07-05 14:58:00,
2013-07-05 11:04:00,84.0,53.4,28.88,SE,135,2.3,2.3,35,0.00,CLR,SKC,0.00,WeatherDisplay:10.37,2013-07-05 15:04:00,
2013-07-05 11:09:00,86.4,55.5,28.89,North,6,3.5,0.0,35,0.00,CLR,SKC,0.00,WeatherDisplay:10.37,2013-07-05 15:09:00,
2013-07-05 11:14:00,86.4,55.5,28.89,NW,315,4.6,4.6,35,0.00,CLR,SKC,0.00,WeatherDisplay:10.37,2013-07-05 15:14:00,
2013-07-05 11:19:00,85.8,55.0,28.89,SE,135,3.5,3.5,35,0.00,CLR,SKC,0.00,WeatherDisplay:10.37,2013-07-05 15:19:00,
2013-07-05 11:24:00,85.5,54.7,28.89,North,7,5.8,5.8,35,0.00,CLR,SKC,0.00,WeatherDisplay:10.37,2013-07-05 15:24:00,
2013-07-05 11:29:00,85.6,54.8,28.89,SE,135,3.5,3.5,35,0.00,CLR,SKC,0.00,WeatherDisplay:10.37,2013-07-05 15:29:00,
2013-07-05 11:34:00,85.5,54.7,28.89,South,180,5.8,5.8,35,0.00,CLR,SKC,0.00,WeatherDisplay:10.37,2013-07-05 15:34:00,
2013-07-05 11:39:00,86.2,55.3,28.89,South,180,1.2,0.0,35,0.00,CLR,SKC,0.00,WeatherDisplay:10.37,2013-07-05 15:39:00,
2013-07-05 11:44:00,87.8,56.7,28.89,ESE,112,3.5,0.0,35,0.00,CLR,SKC,0.00,WeatherDisplay:10.37,2013-07-05 15:44:00,
2013-07-05 11:49:00,87.6,56.6,28.89,North,4,1.2,3.1,35,0.00,CLR,SKC,0.00,WeatherDisplay:10.37,2013-07-05 15:49:00,
2013-07-05 11:52:00,86.9,56.0,28.89,South,180,3.5,3.5,35,0.00,CLR,SKC,0.00,WeatherDisplay:10.37,2013-07-05 15:52:00,
2013-07-05 11:57:00,86.5,55.6,28.89,NW,315,5.8,0.0,35,0.00,CLR,SKC,0.00,WeatherDisplay:10.37,2013-07-05 15:57:00,
2013-07-05 12:02:00,85.6,52.4,28.89,South,180,4.6,4.6,32,0.00,CLR,SKC,0.00,WeatherDisplay:10.37,2013-07-05 16:02:00,
2013-07-05 12:07:00,85.6,52.4,28.89,South,180,4.6,4.6,32,0.00,CLR,SKC,0.00,WeatherDisplay:10.37,2013-07-05 16:07:00,
2013-07-05 12:12:00,85.3,58.9,28.89,South,180,6.9,6.9,41,0.00,CLR,SKC,0.00,WeatherDisplay:10.37,2013-07-05 16:12:00,
2013-07-05 12:17:00,85.1,62.0,28.89,NW,315,3.5,3.5,46,0.00,CLR,SKC,0.00,WeatherDisplay:10.37,2013-07-05 16:17:00,
2013-07-05 12:22:00,85.3,62.2,28.89,North,7,5.8,0.0,46,0.00,CLR,SKC,0.00,WeatherDisplay:10.37,2013-07-05 16:22:00,
2013-07-05 12:27:00,86.4,63.8,28.89,South,180,3.5,0.0,47,0.00,CLR,SKC,0.00,WeatherDisplay:10.37,2013-07-05 16:27:00,
2013-07-05 12:32:00,86.2,64.2,28.88,South,180,2.3,2.3,48,0.00,CLR,SKC,0.00,WeatherDisplay:10.37,2013-07-05 16:32:00,
2013-07-05 12:37:00,86.0,66.3,28.89,South,180,3.5,3.5,52,0.00,CLR,SKC,0.00,WeatherDisplay:10.37,2013-07-05 16:37:00,
2013-07-05 12:42:00,86.5,66.3,28.89,West,270,3.5,3.5,51,0.00,CLR,SKC,0.00,WeatherDisplay:10.37,2013-07-05 16:42:00,
2013-07-05 12:47:00,87.3,66.9,28.88,NW,315,3.5,3.5,51,0.00,CLR,SKC,0.00,WeatherDisplay:10.37,2013-07-05 16:47:00,
2013-07-05 12:52:00,88.2,68.3,28.88,NW,315,2.3,0.0,52,0.00,CLR,SKC,0.00,WeatherDisplay:10.37,2013-07-05 16:52:00,
2013-07-05 12:57:00,89.2,66.4,28.88,South,180,3.5,3.5,47,0.00,CLR,SKC,0.00,WeatherDisplay:10.37,2013-07-05 16:57:00,
2013-07-05 13:02:00,89.4,67.7,28.88,SE,135,5.8,5.8,49,0.00,CLR,SKC,0.00,WeatherDisplay:10.37,2013-07-05 17:02:00,
2013-07-05 13:07:00,89.4,67.7,28.88,SE,135,5.8,5.8,49,0.00,CLR,SKC,0.00,WeatherDisplay:10.37,2013-07-05 17:07:00,
2013-07-05 13:12:00,89.6,69.1,28.88,South,180,4.6,4.6,51,0.00,CLR,SKC,0.00,WeatherDisplay:10.37,2013-07-05 17:12:00,
2013-07-05 13:17:00,89.4,70.0,28.88,SSE,158,8.1,8.1,53,0.00,CLR,SKC,0.00,WeatherDisplay:10.37,2013-07-05 17:17:00,
2013-07-05 13:22:00,88.3,70.7,28.88,South,180,8.1,8.1,56,0.00,CLR,SKC,0.00,WeatherDisplay:10.37,2013-07-05 17:22:00,
2013-07-05 13:27:00,88.5,72.9,28.88,South,180,2.3,2.3,60,0.00,CLR,SKC,0.00,WeatherDisplay:10.37,2013-07-05 17:27:00,
2013-07-05 13:32:00,89.1,71.8,28.87,South,180,13.8,13.8,57,0.00,CLR,SKC,0.00,WeatherDisplay:10.37,2013-07-05 17:32:00,
2013-07-05 13:37:00,89.8,73.5,28.88,North,8,3.5,3.5,59,0.00,CLR,SKC,0.00,WeatherDisplay:10.37,2013-07-05 17:37:00,
2013-07-05 13:42:00,89.4,72.7,28.87,SE,135,10.4,10.4,58,0.00,CLR,SKC,0.00,WeatherDisplay:10.37,2013-07-05 17:42:00,
2013-07-05 13:47:00,89.4,74.7,28.87,NW,315,3.5,3.5,62,0.00,CLR,SKC,0.00,WeatherDisplay:10.37,2013-07-05 17:47:00,
2013-07-05 13:52:00,89.4,74.7,28.87,South,180,3.5,3.5,62,0.00,CLR,SKC,0.00,WeatherDisplay:10.37,2013-07-05 17:52:00,
2013-07-05 13:53:00,89.4,74.7,28.87,South,180,3.5,3.5,62,0.00,CLR,SKC,0.00,WeatherDisplay:10.37,2013-07-05 17:53:00,
2013-07-05 13:58:00,89.1,74.3,28.87,West,270,6.9,6.9,62,0.00,CLR,SKC,0.00,WeatherDisplay:10.37,2013-07-05 17:58:00,
2013-07-05 14:03:00,88.9,75.1,28.87,South,180,8.1,8.1,64,0.00,CLR,SKC,0.00,WeatherDisplay:10.37,2013-07-05 18:03:00,
2013-07-05 14:08:00,87.3,74.5,28.87,West,270,8.1,8.1,66,0.00,CLR,SKC,0.00,WeatherDisplay:10.37,2013-07-05 18:08:00,
2013-07-05 14:13:00,87.8,75.0,28.86,SE,135,5.8,5.8,66,0.00,CLR,SKC,0.00,WeatherDisplay:10.37,2013-07-05 18:13:00,
2013-07-05 14:18:00,87.4,76.0,28.86,East,90,3.5,0.0,69,0.00,CLR,SKC,0.00,WeatherDisplay:10.37,2013-07-05 18:18:00,
2013-07-05 14:23:00,87.3,76.7,28.86,South,180,3.8,3.8,71,0.00,CLR,SKC,0.00,WeatherDisplay:10.37,2013-07-05 18:23:00,
2013-07-05 14:28:00,88.7,77.7,28.86,NE,45,4.6,4.6,70,0.00,CLR,SKC,0.00,WeatherDisplay:10.37,2013-07-05 18:28:00,
2013-07-05 14:33:00,90.1,77.2,28.86,North,8,3.5,3.5,66,0.00,CLR,SKC,0.00,WeatherDisplay:10.37,2013-07-05 18:33:00,
2013-07-05 14:38:00,89.8,77.4,28.86,West,270,3.5,3.5,67,0.00,CLR,SKC,0.00,WeatherDisplay:10.37,2013-07-05 18:38:00,
2013-07-05 14:43:00,90.1,77.2,28.86,NW,315,2.3,2.3,66,0.00,CLR,SKC,0.00,WeatherDisplay:10.37,2013-07-05 18:43:00,
2013-07-05 14:48:00,89.6,78.1,28.86,North,6,3.5,0.0,69,0.00,CLR,SKC,0.00,WeatherDisplay:10.37,2013-07-05 18:48:00,
2013-07-05 14:53:00,89.8,77.8,28.86,South,180,3.5,3.5,68,0.00,CLR,SKC,0.00,WeatherDisplay:10.37,2013-07-05 18:53:00,
2013-07-05 14:58:00,89.4,77.9,28.85,South,180,2.3,2.3,69,0.00,CLR,SKC,0.00,WeatherDisplay:10.37,2013-07-05 18:58:00,
2013-07-05 15:03:00,89.1,77.6,28.85,East,90,2.3,2.3,69,0.00,CLR,SKC,0.00,WeatherDisplay:10.37,2013-07-05 19:03:00,
2013-07-05 15:08:00,89.1,77.6,28.85,East,90,2.3,2.3,69,0.00,CLR,SKC,0.00,WeatherDisplay:10.37,2013-07-05 19:08:00,
2013-07-05 15:13:00,89.1,77.6,28.86,NW,315,4.6,4.6,69,0.00,CLR,SKC,0.00,WeatherDisplay:10.37,2013-07-05 19:13:00,
2013-07-05 15:18:00,90.1,78.1,28.86,South,180,2.3,0.0,68,0.00,CLR,SKC,0.00,WeatherDisplay:10.37,2013-07-05 19:18:00,
2013-07-05 15:23:00,90.5,78.0,28.85,North,10,5.8,5.8,67,0.00,CLR,SKC,0.00,WeatherDisplay:10.37,2013-07-05 19:23:00,
2013-07-05 15:28:00,90.1,78.1,28.85,South,180,3.5,3.5,68,0.00,CLR,SKC,0.00,WeatherDisplay:10.37,2013-07-05 19:28:00,
2013-07-05 15:33:00,90.7,79.5,28.85,South,180,2.3,0.0,70,0.00,CLR,SKC,0.00,WeatherDisplay:10.37,2013-07-05 19:33:00,
2013-07-05 15:38:00,90.9,77.9,28.85,South,180,3.5,3.5,66,0.00,CLR,SKC,0.00,WeatherDisplay:10.37,2013-07-05 19:38:00,
2013-07-05 15:43:00,89.4,77.9,28.85,South,180,3.5,3.8,69,0.00,CLR,SKC,0.00,WeatherDisplay:10.37,2013-07-05 19:43:00,
2013-07-05 15:48:00,88.3,78.2,28.84,SE,135,3.5,3.5,72,0.00,CLR,SKC,0.00,WeatherDisplay:10.37,2013-07-05 19:48:00,
2013-07-05 15:53:00,88.5,78.8,28.84,South,180,5.8,5.8,73,0.00,CLR,SKC,0.00,WeatherDisplay:10.37,2013-07-05 19:53:00,
2013-07-05 15:58:00,88.9,78.7,28.84,NNE,14,3.5,3.5,72,0.00,CLR,SKC,0.00,WeatherDisplay:10.37,2013-07-05 19:58:00,
2013-07-05 16:03:00,89.1,78.9,28.84,North,0,3.5,3.5,72,0.00,CLR,SKC,0.00,WeatherDisplay:10.37,2013-07-05 20:03:00,
2013-07-05 16:08:00,87.1,77.8,28.85,North,0,3.8,3.8,74,0.00,CLR,SKC,0.00,WeatherDisplay:10.37,2013-07-05 20:08:00,
2013-07-05 16:13:00,86.0,77.5,28.84,NNE,16,4.5,4.5,76,0.00,CLR,SKC,0.00,WeatherDisplay:10.37,2013-07-05 20:13:00,
2013-07-05 16:18:00,85.1,77.8,28.84,North,0,3.5,3.5,79,0.00,CLR,SKC,0.00,WeatherDisplay:10.37,2013-07-05 20:18:00,
2013-07-05 16:23:00,84.7,77.9,28.84,NNE,14,5.8,5.8,80,0.00,CLR,SKC,0.00,WeatherDisplay:10.37,2013-07-05 20:23:00,
2013-07-05 16:28:00,84.2,78.1,28.84,NW,315,3.5,3.5,82,0.00,CLR,SKC,0.00,WeatherDisplay:10.37,2013-07-05 20:28:00,
2013-07-05 16:33:00,84.2,78.5,28.84,NW,315,5.8,5.8,83,0.00,CLR,SKC,0.00,WeatherDisplay:10.37,2013-07-05 20:33:00,
2013-07-05 16:38:00,83.5,77.8,28.85,NW,315,5.8,5.8,83,0.00,CLR,SKC,0.00,WeatherDisplay:10.37,2013-07-05 20:38:00,
2013-07-05 16:41:00,82.9,77.6,28.84,NW,315,5.8,5.8,84,0.00,CLR,SKC,0.00,WeatherDisplay:10.37,2013-07-05 20:41:00,
2013-07-05 16:46:00,82.4,77.8,28.84,South,180,4.6,4.6,86,0.00,CLR,SKC,0.00,WeatherDisplay:10.37,2013-07-05 20:46:00,
2013-07-05 16:51:00,82.6,77.3,28.85,North,8,3.5,3.5,84,0.00,CLR,SKC,0.00,WeatherDisplay:10.37,2013-07-05 20:51:00,
2013-07-05 16:56:00,83.1,77.8,28.84,North,7,3.5,0.0,84,0.00,CLR,SKC,0.00,WeatherDisplay:10.37,2013-07-05 20:56:00,
2013-07-05 17:01:00,83.3,78.0,28.84,NE,45,1.2,0.0,84,0.00,CLR,SKC,0.00,WeatherDisplay:10.37,2013-07-05 21:01:00,
2013-07-05 17:06:00,83.3,78.0,28.84,NE,45,1.2,0.0,84,0.00,CLR,SKC,0.00,WeatherDisplay:10.37,2013-07-05 21:06:00,
2013-07-05 17:11:00,84.2,77.4,28.84,South,180,2.3,2.3,80,0.00,CLR,SKC,0.00,WeatherDisplay:10.37,2013-07-05 21:11:00,
2013-07-05 17:16:00,84.6,76.9,28.83,NW,315,4.6,4.6,78,0.00,CLR,SKC,0.00,WeatherDisplay:10.37,2013-07-05 21:16:00,
2013-07-05 17:21:00,84.9,77.7,28.83,South,180,3.5,0.0,79,0.00,CLR,SKC,0.00,WeatherDisplay:10.37,2013-07-05 21:21:00,
2013-07-05 17:26:00,84.9,77.7,28.83,North,1,3.5,3.5,79,0.00,CLR,SKC,0.00,WeatherDisplay:10.37,2013-07-05 21:26:00,
2013-07-05 17:31:00,84.9,77.7,28.83,NNE,14,3.5,3.5,79,0.00,CLR,SKC,0.00,WeatherDisplay:10.37,2013-07-05 21:31:00,
2013-07-05 17:37:00,84.2,77.4,28.83,NNE,14,5.8,5.8,80,0.00,CLR,SKC,0.00,WeatherDisplay:10.37,2013-07-05 21:37:00,
2013-07-05 17:42:00,84.0,77.2,28.83,NE,45,3.5,3.5,80,0.00,CLR,SKC,0.00,WeatherDisplay:10.37,2013-07-05 21:42:00,
2013-07-05 17:47:00,84.2,77.4,28.83,South,180,2.3,2.3,80,0.00,CLR,SKC,0.00,WeatherDisplay:10.37,2013-07-05 21:47:00,
2013-07-05 17:50:00,84.0,77.2,28.83,South,180,3.5,3.5,80,0.00,CLR,SKC,0.00,WeatherDisplay:10.37,2013-07-05 21:50:00,
2013-07-05 17:55:00,84.2,77.7,28.83,South,180,5.8,0.0,81,0.00,CLR,SKC,0.00,WeatherDisplay:10.37,2013-07-05 21:55:00,
2013-07-05 18:00:00,84.6,77.7,28.83,South,180,2.3,2.3,80,0.00,CLR,SKC,0.00,WeatherDisplay:10.37,2013-07-05 22:00:00,
2013-07-05 18:05:00,84.6,77.7,28.82,South,180,3.5,3.5,80,0.00,CLR,SKC,0.00,WeatherDisplay:10.37,2013-07-05 22:05:00,
2013-07-05 18:10:00,84.7,77.9,28.82,South,180,1.2,0.0,80,0.00,CLR,SKC,0.00,WeatherDisplay:10.37,2013-07-05 22:10:00,
2013-07-05 18:15:00,84.6,77.7,28.82,NW,315,3.5,3.5,80,0.00,CLR,SKC,0.00,WeatherDisplay:10.37,2013-07-05 22:15:00,
2013-07-05 18:20:00,84.9,78.1,28.82,North,1,3.5,3.5,80,0.00,CLR,SKC,0.00,WeatherDisplay:10.37,2013-07-05 22:20:00,
2013-07-05 18:25:00,85.6,78.0,28.82,SE,135,2.3,0.0,78,0.00,CLR,SKC,0.00,WeatherDisplay:10.37,2013-07-05 22:25:00,
2013-07-05 18:30:00,86.2,78.5,28.82,South,180,1.2,0.0,78,0.00,CLR,SKC,0.00,WeatherDisplay:10.37,2013-07-05 22:30:00,
2013-07-05 18:35:00,85.8,78.2,28.82,South,180,3.5,3.5,78,0.00,CLR,SKC,0.00,WeatherDisplay:10.37,2013-07-05 22:35:00,
2013-07-05 18:40:00,85.3,78.4,28.82,North,6,2.3,0.0,80,0.00,CLR,SKC,0.00,WeatherDisplay:10.37,2013-07-05 22:40:00,
2013-07-05 18:45:00,85.1,78.2,28.82,East,90,1.2,0.0,80,0.00,CLR,SKC,0.00,WeatherDisplay:10.37,2013-07-05 22:45:00,
2013-07-05 18:50:00,84.9,78.1,28.82,SE,135,1.2,1.2,80,0.00,CLR,SKC,0.00,WeatherDisplay:10.37,2013-07-05 22:50:00,
2013-07-05 18:55:00,84.4,77.9,28.82,North,7,3.5,3.5,81,0.00,CLR,SKC,0.00,WeatherDisplay:10.37,2013-07-05 22:55:00,
2013-07-05 19:00:00,84.0,77.6,28.82,South,180,2.3,2.3,81,0.00,CLR,SKC,0.00,WeatherDisplay:10.37,2013-07-05 23:00:00,
2013-07-05 19:05:00,84.0,77.6,28.82,South,180,2.3,2.3,81,0.00,CLR,SKC,0.00,WeatherDisplay:10.37,2013-07-05 23:05:00,
2013-07-05 19:10:00,83.5,77.4,28.82,South,180,2.3,2.3,82,0.00,CLR,SKC,0.00,WeatherDisplay:10.37,2013-07-05 23:10:00,
2013-07-05 19:15:00,83.3,77.6,28.82,South,180,2.3,2.3,83,0.00,CLR,SKC,0.00,WeatherDisplay:10.37,2013-07-05 23:15:00,
2013-07-05 19:20:00,83.3,77.6,28.82,South,180,0.0,0.0,83,0.00,CLR,SKC,0.00,WeatherDisplay:10.37,2013-07-05 23:20:00,
2013-07-05 19:25:00,83.3,77.2,28.83,SE,135,8.1,8.1,82,0.00,CLR,SKC,0.00,WeatherDisplay:10.37,2013-07-05 23:25:00,
2013-07-05 19:30:00,83.3,76.1,28.82,SE,135,6.9,6.9,79,0.00,CLR,SKC,0.00,WeatherDisplay:10.37,2013-07-05 23:30:00,
2013-07-05 19:35:00,83.3,76.5,28.83,North,8,2.3,0.0,80,0.00,CLR,SKC,0.00,WeatherDisplay:10.37,2013-07-05 23:35:00,
2013-07-05 19:40:00,83.3,76.5,28.83,SE,135,3.5,0.0,80,0.00,CLR,SKC,0.00,WeatherDisplay:10.37,2013-07-05 23:40:00,
2013-07-05 19:45:00,83.3,76.1,28.83,SE,135,2.3,2.3,79,0.00,CLR,SKC,0.00,WeatherDisplay:10.37,2013-07-05 23:45:00,
2013-07-05 19:50:00,82.9,75.8,28.83,South,180,3.5,3.5,79,0.00,CLR,SKC,0.00,WeatherDisplay:10.37,2013-07-05 23:50:00,
2013-07-05 19:55:00,82.8,75.6,28.83,SE,135,1.2,0.0,79,0.00,CLR,SKC,0.00,WeatherDisplay:10.37,2013-07-05 23:55:00,
2013-07-05 20:00:00,82.0,75.6,28.83,South,180,1.2,0.0,81,0.00,CLR,SKC,0.00,WeatherDisplay:10.37,2013-07-06 00:00:00,
2013-07-05 20:05:00,81.3,74.9,28.83,NW,315,2.3,2.3,81,0.00,CLR,SKC,0.00,WeatherDisplay:10.37,2013-07-06 00:05:00,
2013-07-05 20:10:00,80.8,74.8,28.83,SSE,158,4.6,4.6,82,0.00,CLR,SKC,0.00,WeatherDisplay:10.37,2013-07-06 00:10:00,
2013-07-05 20:15:00,80.6,75.0,28.84,South,180,2.3,0.0,83,0.00,CLR,SKC,0.00,WeatherDisplay:10.37,2013-07-06 00:15:00,
2013-07-05 20:20:00,81.0,74.9,28.83,South,180,0.0,0.0,82,0.00,CLR,SKC,0.00,WeatherDisplay:10.37,2013-07-06 00:20:00,
2013-07-05 20:25:00,81.0,74.9,28.84,South,180,0.0,0.0,82,0.00,CLR,SKC,0.00,WeatherDisplay:10.37,2013-07-06 00:25:00,
2013-07-05 20:26:00,81.0,74.9,28.84,South,180,0.0,0.0,82,0.00,CLR,SKC,0.00,WeatherDisplay:10.37,2013-07-06 00:26:00,
2013-07-05 20:31:00,80.1,74.8,28.84,South,180,2.3,2.3,84,0.00,CLR,SKC,0.00,WeatherDisplay:10.37,2013-07-06 00:31:00,
2013-07-05 20:36:00,79.5,74.6,28.84,South,180,1.2,1.2,85,0.00,CLR,SKC,0.00,WeatherDisplay:10.37,2013-07-06 00:36:00,
2013-07-05 20:41:00,79.2,74.6,28.84,South,180,2.3,2.3,86,0.00,CLR,SKC,0.00,WeatherDisplay:10.37,2013-07-06 00:41:00,
2013-07-05 20:46:00,78.8,74.3,28.85,South,180,3.5,0.0,86,0.00,CLR,SKC,0.00,WeatherDisplay:10.37,2013-07-06 00:46:00,
2013-07-05 20:51:00,78.6,74.1,28.85,South,180,1.2,0.0,86,0.00,CLR,SKC,0.00,WeatherDisplay:10.37,2013-07-06 00:51:00,
2013-07-05 20:52:00,78.6,74.1,28.85,South,180,0.0,0.0,86,0.00,CLR,SKC,0.00,WeatherDisplay:10.37,2013-07-06 00:52:00,
2013-07-05 20:57:00,78.3,74.1,28.85,South,180,0.0,0.0,87,0.00,CLR,SKC,0.00,WeatherDisplay:10.37,2013-07-06 00:57:00,
2013-07-05 21:02:00,78.1,73.9,28.85,South,180,0.0,0.0,87,0.00,CLR,SKC,0.00,WeatherDisplay:10.37,2013-07-06 01:02:00,
2013-07-05 21:07:00,78.1,73.9,28.85,South,180,0.0,0.0,87,0.00,CLR,SKC,0.00,WeatherDisplay:10.37,2013-07-06 01:07:00,
2013-07-05 21:12:00,77.5,73.7,28.84,South,180,0.0,0.0,88,0.00,CLR,SKC,0.00,WeatherDisplay:10.37,2013-07-06 01:12:00,
2013-07-05 21:17:00,77.2,73.7,28.84,South,180,0.0,0.0,89,0.00,CLR,SKC,0.00,WeatherDisplay:10.37,2013-07-06 01:17:00,
2013-07-05 21:22:00,77.0,73.5,28.84,South,180,0.0,0.0,89,0.00,CLR,SKC,0.00,WeatherDisplay:10.37,2013-07-06 01:22:00,
2013-07-05 21:27:00,76.8,73.7,28.84,South,180,1.2,0.0,90,0.00,CLR,SKC,0.00,WeatherDisplay:10.37,2013-07-06 01:27:00,
2013-07-05 21:32:00,76.8,73.7,28.85,South,180,0.0,0.0,90,0.00,CLR,SKC,0.00,WeatherDisplay:10.37,2013-07-06 01:32:00,
2013-07-05 21:34:00,76.6,73.5,28.85,South,180,0.0,0.0,90,0.00,CLR,SKC,0.00,WeatherDisplay:10.37,2013-07-06 01:34:00,
2013-07-05 21:39:00,76.5,73.3,28.85,South,180,0.0,0.0,90,0.00,CLR,SKC,0.00,WeatherDisplay:10.37,2013-07-06 01:39:00,
2013-07-05 21:44:00,76.3,73.1,28.85,South,180,0.0,0.0,90,0.00,CLR,SKC,0.00,WeatherDisplay:10.37,2013-07-06 01:44:00,
2013-07-05 21:49:00,76.3,73.1,28.86,South,180,0.0,0.0,90,0.00,CLR,SKC,0.00,WeatherDisplay:10.37,2013-07-06 01:49:00,
2013-07-05 21:54:00,76.1,73.3,28.86,South,180,0.0,0.0,91,0.00,CLR,SKC,0.00,WeatherDisplay:10.37,2013-07-06 01:54:00,
2013-07-05 21:59:00,76.1,73.3,28.86,South,180,0.0,0.0,91,0.00,CLR,SKC,0.00,WeatherDisplay:10.37,2013-07-06 01:59:00,
2013-07-05 22:04:00,75.9,73.1,28.86,South,180,0.0,0.0,91,0.00,CLR,SKC,0.00,WeatherDisplay:10.37,2013-07-06 02:04:00,
2013-07-05 22:05:00,75.9,73.1,28.86,South,180,0.0,0.0,91,0.00,CLR,SKC,0.00,WeatherDisplay:10.37,2013-07-06 02:05:00,
2013-07-05 22:10:00,75.9,73.4,28.86,SE,135,0.0,0.0,92,0.00,CLR,SKC,0.00,WeatherDisplay:10.37,2013-07-06 02:10:00,
2013-07-05 22:15:00,75.7,73.2,28.85,SE,135,0.0,0.0,92,0.00,CLR,SKC,0.00,WeatherDisplay:10.37,2013-07-06 02:15:00,
2013-07-05 22:20:00,75.4,72.9,28.85,SE,135,0.0,0.0,92,0.00,CLR,SKC,0.00,WeatherDisplay:10.37,2013-07-06 02:20:00,
2013-07-05 22:25:00,75.2,73.0,28.85,SE,135,0.0,0.0,93,0.00,CLR,SKC,0.00,WeatherDisplay:10.37,2013-07-06 02:25:00,
2013-07-05 22:30:00,75.2,73.0,28.86,SE,135,0.0,0.0,93,0.00,CLR,SKC,0.00,WeatherDisplay:10.37,2013-07-06 02:30:00,
2013-07-05 22:35:00,75.0,72.9,28.86,SE,135,0.0,0.0,93,0.00,CLR,SKC,0.00,WeatherDisplay:10.37,2013-07-06 02:35:00,
2013-07-05 22:40:00,74.8,73.0,28.86,SE,135,0.0,0.0,94,0.00,CLR,SKC,0.00,WeatherDisplay:10.37,2013-07-06 02:40:00,
2013-07-05 22:45:00,74.8,73.0,28.86,SE,135,0.0,0.0,94,0.00,CLR,SKC,0.00,WeatherDisplay:10.37,2013-07-06 02:45:00,
2013-07-05 22:50:00,74.8,73.3,28.86,South,180,1.2,0.0,95,0.00,CLR,SKC,0.00,WeatherDisplay:10.37,2013-07-06 02:50:00,
2013-07-05 22:55:00,74.8,73.3,28.86,South,180,1.2,1.2,95,0.00,CLR,SKC,0.00,WeatherDisplay:10.37,2013-07-06 02:55:00,
2013-07-05 23:00:00,74.8,73.6,28.86,South,180,1.2,0.0,96,0.00,CLR,SKC,0.00,WeatherDisplay:10.37,2013-07-06 03:00:00,
2013-07-05 23:05:00,74.8,73.6,28.86,South,180,1.2,0.0,96,0.00,CLR,SKC,0.00,WeatherDisplay:10.37,2013-07-06 03:05:00,
2013-07-05 23:10:00,74.5,73.6,28.86,South,180,1.2,1.2,97,0.00,CLR,SKC,0.00,WeatherDisplay:10.37,2013-07-06 03:10:00,
2013-07-05 23:15:00,74.3,73.4,28.86,SE,135,2.3,0.0,97,0.00,CLR,SKC,0.00,WeatherDisplay:10.37,2013-07-06 03:15:00,
2013-07-05 23:20:00,74.3,73.7,28.87,South,180,1.2,1.2,98,0.00,CLR,SKC,0.00,WeatherDisplay:10.37,2013-07-06 03:20:00,
2013-07-05 23:23:00,74.1,73.5,28.87,South,180,0.0,0.0,98,0.00,CLR,SKC,0.00,WeatherDisplay:10.37,2013-07-06 03:23:00,
2013-07-05 23:28:00,74.1,73.5,28.87,South,180,0.0,0.0,98,0.00,CLR,SKC,0.00,WeatherDisplay:10.37,2013-07-06 03:28:00,
2013-07-05 23:33:00,74.1,73.5,28.87,South,180,0.0,0.0,98,0.00,CLR,SKC,0.00,WeatherDisplay:10.37,2013-07-06 03:33:00,
2013-07-05 23:38:00,74.1,73.8,28.87,South,180,0.0,0.0,99,0.00,CLR,SKC,0.00,WeatherDisplay:10.37,2013-07-06 03:38:00,
2013-07-05 23:43:00,74.1,73.8,28.87,South,180,0.0,0.0,99,0.00,CLR,SKC,0.00,WeatherDisplay:10.37,2013-07-06 03:43:00,
2013-07-05 23:48:00,74.3,74.0,28.87,South,180,0.0,0.0,99,0.00,CLR,SKC,0.00,WeatherDisplay:10.37,2013-07-06 03:48:00,
2013-07-05 23:53:00,74.3,74.0,28.87,South,180,0.0,0.0,99,0.00,CLR,SKC,0.00,WeatherDisplay:10.37,2013-07-06 03:53:00,
2013-07-05 23:58:00,74.1,73.8,28.87,South,180,0.0,0.0,99,0.00,CLR,SKC,0.00,WeatherDisplay:10.37,2013-07-06 03:58:00,